Time,TemperatureF,DewpointF,PressureIn,WindDirection,WindDirectionDegrees,WindSpeedMPH,WindSpeedGustMPH,Humidity,HourlyPrecipIn,Conditions,Clouds,dailyrainin,SoftwareType,DateUTC
2013-07-17 00:01:00,80.0,-99.9,30.20,SW,228,6.0,8.0,-999,-99.99,,,-99.99,,2013-07-17 04:01:00,
2013-07-17 00:32:00,80.0,-99.9,30.19,SW,224,7.0,9.0,-999,-99.99,,,-99.99,,2013-07-17 04:32:00,
2013-07-17 01:02:00,80.0,-99.9,30.19,SW,228,8.0,10.0,-999,-99.99,,,-99.99,,2013-07-17 05:02:00,
2013-07-17 01:43:00,79.0,-99.9,30.18,WSW,243,8.0,11.0,-999,-99.99,,,-99.99,,2013-07-17 05:43:00,
2013-07-17 02:01:00,79.0,-99.9,30.18,WSW,251,8.0,11.0,-999,-99.99,,,-99.99,,2013-07-17 06:01:00,
2013-07-17 02:33:00,79.0,-99.9,30.17,WSW,255,7.0,9.0,-999,-99.99,,,-99.99,,2013-07-17 06:33:00,
2013-07-17 02:43:00,79.0,-99.9,30.17,WSW,239,9.0,12.0,-999,-99.99,,,-99.99,,2013-07-17 06:43:00,
2013-07-17 02:52:00,79.0,-99.9,30.17,WSW,239,10.0,11.0,-999,-99.99,,,-99.99,,2013-07-17 06:52:00,
2013-07-17 03:01:00,79.0,-99.9,30.17,WSW,247,10.0,12.0,-999,-99.99,,,-99.99,,2013-07-17 07:01:00,
2013-07-17 03:22:00,79.0,-99.9,30.17,WSW,250,9.0,12.0,-999,-99.99,,,-99.99,,2013-07-17 07:22:00,
2013-07-17 03:42:00,79.0,-99.9,30.16,WSW,245,7.0,9.0,-999,-99.99,,,-99.99,,2013-07-17 07:42:00,
2013-07-17 03:52:00,79.0,-99.9,30.16,WSW,258,7.0,9.0,-999,-99.99,,,-99.99,,2013-07-17 07:52:00,
2013-07-17 04:02:00,79.0,-99.9,30.16,WSW,251,9.0,12.0,-999,-99.99,,,-99.99,,2013-07-17 08:02:00,
2013-07-17 04:32:00,79.0,-99.9,30.15,West,268,6.0,10.0,-999,-99.99,,,-99.99,,2013-07-17 08:32:00,
2013-07-17 04:43:00,79.0,-99.9,30.15,West,272,9.0,11.0,-999,-99.99,,,-99.99,,2013-07-17 08:43:00,
2013-07-17 04:53:00,79.0,-99.9,30.15,West,261,7.0,12.0,-999,-99.99,,,-99.99,,2013-07-17 08:53:00,
2013-07-17 05:02:00,79.0,-99.9,30.15,WSW,258,9.0,11.0,-999,-99.99,,,-99.99,,2013-07-17 09:02:00,
2013-07-17 05:12:00,79.0,-99.9,30.15,WSW,254,8.0,12.0,-999,-99.99,,,-99.99,,2013-07-17 09:12:00,
2013-07-17 05:32:00,78.0,-99.9,30.15,NW,308,9.0,12.0,-999,-99.99,,,-99.99,,2013-07-17 09:32:00,
2013-07-17 05:43:00,78.0,-99.9,30.16,NNW,330,8.0,10.0,-999,-99.99,,,-99.99,,2013-07-17 09:43:00,
2013-07-17 05:52:00,78.0,-99.9,30.16,North,352,8.0,9.0,-999,-99.99,,,-99.99,,2013-07-17 09:52:00,
2013-07-17 06:01:00,78.0,-99.9,30.16,North,-999,8.0,10.0,-999,-99.99,,,-99.99,,2013-07-17 10:01:00,
2013-07-17 06:11:00,77.0,-99.9,30.17,North,355,7.0,8.0,-999,-99.99,,,-99.99,,2013-07-17 10:11:00,
2013-07-17 06:43:00,77.0,-99.9,30.17,NNW,338,1.0,3.0,-999,-99.99,,,-99.99,,2013-07-17 10:43:00,
2013-07-17 07:02:00,77.0,-99.9,30.18,SSW,199,-999.0,1.0,-999,-99.99,,,-99.99,,2013-07-17 11:02:00,
2013-07-17 07:22:00,78.0,-99.9,30.17,SW,234,-999.0,2.0,-999,-99.99,,,-99.99,,2013-07-17 11:22:00,
2013-07-17 07:42:00,78.0,-99.9,30.17,WNW,300,3.0,4.0,-999,-99.99,,,-99.99,,2013-07-17 11:42:00,
2013-07-17 08:02:00,78.0,-99.9,30.17,WNW,300,3.0,4.0,-999,-99.99,,,-99.99,,2013-07-17 12:02:00,
2013-07-17 08:12:00,78.0,-99.9,30.17,NW,304,6.0,7.0,-999,-99.99,,,-99.99,,2013-07-17 12:12:00,
2013-07-17 09:22:00,81.0,-99.9,30.19,NW,307,12.0,17.0,-999,-99.99,,,-99.99,,2013-07-17 13:22:00,
2013-07-17 09:43:00,81.0,-99.9,30.19,NNW,332,12.0,18.0,-999,-99.99,,,-99.99,,2013-07-17 13:43:00,
2013-07-17 10:02:00,81.0,-99.9,30.19,NNW,335,15.0,19.0,-999,-99.99,,,-99.99,,2013-07-17 14:02:00,
2013-07-17 10:43:00,82.0,-99.9,30.19,North,3,10.0,12.0,-999,-99.99,,,-99.99,,2013-07-17 14:43:00,
2013-07-17 10:52:00,82.0,-99.9,30.19,North,3,10.0,12.0,-999,-99.99,,,-99.99,,2013-07-17 14:52:00,
2013-07-17 11:02:00,82.0,-99.9,30.19,North,3,10.0,12.0,-999,-99.99,,,-99.99,,2013-07-17 15:02:00,
2013-07-17 12:33:00,83.0,-99.9,30.17,ESE,109,7.0,9.0,-999,-99.99,,,-99.99,,2013-07-17 16:33:00,
2013-07-17 12:43:00,83.0,-99.9,30.17,ESE,103,7.0,8.0,-999,-99.99,,,-99.99,,2013-07-17 16:43:00,
2013-07-17 13:02:00,84.0,-99.9,30.17,ESE,113,6.0,7.0,-999,-99.99,,,-99.99,,2013-07-17 17:02:00,
2013-07-17 13:32:00,84.0,-99.9,30.17,ESE,123,5.0,6.0,-999,-99.99,,,-99.99,,2013-07-17 17:32:00,
2013-07-17 14:01:00,83.0,-99.9,30.17,ESE,109,6.0,7.0,-999,-99.99,,,-99.99,,2013-07-17 18:01:00,
2013-07-17 15:43:00,83.0,-99.9,30.14,SE,133,7.0,9.0,-999,-99.99,,,-99.99,,2013-07-17 19:43:00,
2013-07-17 16:02:00,82.0,-99.9,30.14,SE,134,9.0,9.0,-999,-99.99,,,-99.99,,2013-07-17 20:02:00,
2013-07-17 16:43:00,83.0,-99.9,30.13,ESE,118,8.0,10.0,-999,-99.99,,,-99.99,,2013-07-17 20:43:00,
2013-07-17 18:11:00,83.0,-99.9,30.11,SE,131,7.0,9.0,-999,-99.99,,,-99.99,,2013-07-17 22:11:00,
2013-07-17 19:02:00,83.0,-99.9,30.11,South,182,7.0,8.0,-999,-99.99,,,-99.99,,2013-07-17 23:02:00,
2013-07-17 19:22:00,83.0,-99.9,30.11,South,189,8.0,9.0,-999,-99.99,,,-99.99,,2013-07-17 23:22:00,
2013-07-17 19:52:00,82.0,-99.9,30.11,SSE,163,7.0,8.0,-999,-99.99,,,-99.99,,2013-07-17 23:52:00,
2013-07-17 20:01:00,82.0,-99.9,30.11,SSE,165,8.0,9.0,-999,-99.99,,,-99.99,,2013-07-18 00:01:00,
2013-07-17 20:33:00,82.0,-99.9,30.11,SSE,163,6.0,6.0,-999,-99.99,,,-99.99,,2013-07-18 00:33:00,
2013-07-17 20:43:00,82.0,-99.9,30.11,South,186,5.0,6.0,-999,-99.99,,,-99.99,,2013-07-18 00:43:00,
2013-07-17 20:52:00,82.0,-99.9,30.11,SSW,198,5.0,6.0,-999,-99.99,,,-99.99,,2013-07-18 00:52:00,
2013-07-17 21:01:00,81.0,-99.9,30.12,SSW,210,4.0,5.0,-999,-99.99,,,-99.99,,2013-07-18 01:01:00,
2013-07-17 21:43:00,82.0,-99.9,30.13,South,191,6.0,7.0,-999,-99.99,,,-99.99,,2013-07-18 01:43:00,
2013-07-17 22:02:00,81.0,-99.9,30.13,SSW,212,5.0,6.0,-999,-99.99,,,-99.99,,2013-07-18 02:02:00,
2013-07-17 23:01:00,81.0,-99.9,30.13,SSE,161,2.0,3.0,-999,-99.99,,,-99.99,,2013-07-18 03:01:00,
2013-07-17 23:11:00,81.0,-99.9,30.13,SSE,161,2.0,3.0,-999,-99.99,,,-99.99,,2013-07-18 03:11:00,
2013-07-17 23:22:00,81.0,-99.9,30.13,SE,140,3.0,3.0,-999,-99.99,,,-99.99,,2013-07-18 03:22:00,